Wind_Speed
3 2 1 2 2 3 4 4 4 5 4 5 5 6 6 6 7 7 6 6 7 7 7 8 8 9 9 9 9 9 10 10 10 10 9 10 11 11 11 11 11 11 11
2 2 3 3 3 4 4 5 4 4 5 6 6 7 7 7 8 8 7 7 8 8 9 9 10 10 10 10 10 10 10 10 11 11 10 10 11 11 12 12 12 12 12
2 2 3 4 4 5 4 4 4 5 5 6 7 7 7 8 8 9 8 8 9 10 10 10 11 11 11 11 11 10 11 11 12 11 11 11 11 12 13 13 12 12 13
2 2 3 4 5 5 4 4 5 6 6 6 8 8 8 8 8 9 9 9 10 10 10 10 10 11 11 11 11 11 11 11 12 12 12 12 13 13 13 12 13 13 13
2 2 3 4 5 5 4 5 6 6 7 8 8 9 9 9 9 10 10 10 10 10 10 10 10 11 11 12 12 11 11 12 12 12 12 12 12 13 14 14 14 13 13
2 2 3 4 5 5 5 5 6 7 8 9 9 10 10 11 11 10 11 11 11 11 11 11 11 11 12 12 12 12 12 12 13 13 13 13 13 13 14 14 14 14 14
3 4 4 5 5 5 6 6 7 8 9 10 11 11 12 12 13 12 11 12 12 11 12 12 12 12 12 12 12 12 12 12 13 13 14 14 14 14 14 14 14 14 15
4 4 5 6 6 6 6 7 8 9 11 11 12 12 13 13 14 13 12 13 13 12 12 12 12 12 12 12 12 13 13 13 13 13 13 13 14 14 14 14 14 14 14
5 5 5 6 7 8 8 9 10 11 12 13 13 14 13 13 13 13 13 13 13 13 13 13 13 12 12 12 12 12 13 14 14 13 13 14 14 14 14 15 15 14 14
6 6 7 8 8 9 9 10 11 12 13 13 14 14 13 13 13 13 13 13 13 13 13 13 13 13 13 13 14 14 14 14 14 14 15 16 15 15 15 15 16 16 16
8 9 9 10 11 11 11 12 13 13 13 13 14 14 13 14 14 14 14 14 14 14 14 14 14 14 15 15 15 15 16 15 15 16 16 17 17 16 16 16 16 16 17
11 11 11 12 13 13 14 14 14 15 15 15 15 14 14 16 16 16 15 15 15 15 15 16 16 16 16 16 16 16 17 17 17 18 18 18 18 18 18 18 18 17 18
14 14 14 15 15 15 15 15 16 16 17 17 16 17 17 18 18 18 17 17 17 17 17 18 18 17 17 17 17 18 18 19 19 19 19 19 19 19 19 20 19 19 19
16 16 17 17 17 17 17 17 18 18 18 18 18 19 19 20 20 20 19 19 19 19 19 19 19 19 19 20 20 20 20 21 21 21 21 21 21 21 21 21 21 21 21
18 18 19 19 19 19 19 19 19 20 20 20 20 21 22 22 22 22 21 21 21 21 20 21 21 21 21 22 22 22 23 23 23 23 23 23 23 22 22 22 22 23 23
20 21 21 21 21 21 21 22 22 22 22 22 22 24 24 24 24 23 23 23 23 23 22 22 22 23 23 23 24 25 25 25 25 25 25 24 24 24 23 23 23 23 24
22 22 22 23 23 23 23 23 24 23 24 24 24 24 25 25 25 24 24 25 25 25 24 24 24 25 25 25 25 26 26 26 26 26 26 25 25 25 25 25 24 24 25
23 23 23 24 24 24 24 24 24 24 24 24 25 25 26 26 26 25 25 26 26 26 26 26 26 26 26 26 27 27 27 27 27 27 27 27 27 26 26 26 26 26 26
25 25 25 25 25 25 25 25 24 24 24 24 25 26 26 27 26 26 27 27 27 27 27 28 28 27 27 27 28 27 27 27 27 27 27 27 27 27 27 27 27 27 28
27 27 27 27 27 27 27 26 26 26 26 26 26 27 28 27 28 28 28 29 29 28 29 29 29 28 28 28 28 28 27 27 27 28 27 27 27 27 27 27 28 28 28
28 28 28 28 29 29 29 28 28 28 27 27 28 28 29 29 29 29 29 29 29 30 30 29 28 28 28 28 28 29 29 29 28 28 28 28 28 28 28 28 28 28 28
29 29 29 30 31 31 31 30 29 29 29 30 30 30 30 31 31 31 31 31 31 30 30 29 28 28 28 29 30 30 30 30 29 29 29 28 28 28 29 29 29 29 29
31 31 31 31 31 31 31 30 30 31 31 31 31 31 32 32 32 31 31 31 31 30 30 30 30 29 29 30 30 31 31 31 30 30 30 29 29 29 29 30 30 30 30
32 32 32 32 32 32 31 31 31 31 32 32 32 32 32 32 32 31 31 31 31 31 31 31 31 31 31 31 31 31 31 31 30 31 31 30 30 30 30 31 31 31 31
32 32 33 33 33 33 33 33 32 32 33 33 33 33 33 33 33 32 32 31 31 31 31 31 31 32 32 32 32 32 32 32 31 31 31 31 31 31 31 31 32 32 32
33 33 33 33 33 33 34 34 33 33 34 33 33 33 33 32 32 32 32 32 32 32 33 33 33 33 33 33 33 33 33 32 32 31 31 31 32 32 31 32 32 32 32
Wind_Direction
56 50 44 354 319 323 329 329 330 332 323 331 321 320 320 317 315 315 308 305 304 302 302 301 297 295 291 292 286 282 281 283 284 284 277 270 268 267 266 265 265 264 260
38 22 358 337 319 313 316 322 332 336 340 329 323 320 314 308 307 307 304 303 303 302 302 299 296 295 294 290 287 282 282 281 278 283 277 275 272 267 271 269 268 264 260
344 341 339 337 333 325 318 325 326 330 332 328 324 320 314 309 311 310 307 304 304 302 299 297 298 295 291 290 289 286 285 283 282 282 279 278 273 269 270 266 271 267 260
309 324 330 333 335 334 331 334 338 335 335 329 326 326 323 317 319 317 313 311 309 306 303 303 300 295 292 291 290 288 289 289 290 287 282 282 276 271 269 269 269 270 262
313 323 325 333 337 334 332 331 334 331 328 324 324 326 326 321 317 315 312 310 309 306 302 301 299 294 290 289 289 288 288 288 289 287 282 282 278 272 270 270 268 270 266
320 326 320 327 331 330 331 329 328 325 323 322 321 322 320 317 315 312 309 307 305 303 301 298 296 295 295 291 288 286 284 283 284 283 281 280 279 275 274 276 274 268 269
318 313 309 315 319 320 323 324 321 320 322 324 321 318 318 316 313 309 306 307 305 302 300 298 295 293 293 291 291 289 287 287 287 283 280 279 278 276 275 278 278 275 270
307 309 304 303 304 307 311 315 314 313 315 317 317 316 315 313 311 308 304 305 304 302 300 297 295 294 292 291 289 288 288 288 286 285 285 282 279 279 276 279 282 283 276
302 306 301 299 297 300 304 307 309 310 310 310 311 315 315 312 313 309 305 303 300 300 300 299 294 293 292 292 291 290 288 287 287 285 284 284 283 281 278 279 277 278 276
297 298 298 300 299 298 299 300 303 305 307 306 308 312 312 307 306 311 307 303 301 298 297 297 294 293 292 293 292 289 286 286 286 283 282 282 282 281 280 280 275 274 275
294 294 292 293 294 295 295 297 300 303 305 304 305 308 310 310 305 307 307 302 299 296 296 295 292 292 292 292 292 290 287 285 285 284 283 283 282 279 278 278 275 273 273
289 289 290 291 291 292 293 294 295 299 302 302 302 303 306 309 305 303 303 301 299 297 294 294 293 291 291 290 290 289 286 285 283 283 284 285 285 282 278 277 275 274 272
289 289 290 291 292 293 293 292 293 296 297 298 298 297 299 303 302 300 300 299 297 295 292 291 291 290 288 288 288 287 285 285 282 282 283 283 283 283 279 278 276 274 273
287 289 290 291 291 292 292 291 291 293 293 294 295 296 298 299 299 297 298 298 295 293 292 290 288 288 286 287 287 285 284 282 282 282 282 281 282 281 280 278 275 272 274
287 289 290 290 291 291 290 290 290 291 291 292 293 296 297 296 296 293 293 295 293 290 289 288 287 287 286 285 286 285 283 282 282 282 282 281 281 279 279 277 275 274 273
290 290 290 291 290 291 293 292 291 291 290 291 292 293 294 294 294 294 292 291 292 291 289 289 288 286 287 285 284 285 283 281 281 281 280 280 279 277 277 276 275 275 273
293 291 291 292 292 292 293 292 290 291 290 291 292 292 293 294 292 291 291 291 291 289 289 290 289 287 285 285 285 285 283 281 281 280 279 278 278 276 275 275 275 275 274
293 293 294 292 291 291 291 291 289 288 289 291 293 293 293 293 291 290 291 290 289 287 287 287 287 286 286 286 285 285 283 282 281 280 278 277 277 276 275 275 275 276 276
292 292 294 294 293 291 290 290 289 288 291 292 292 292 292 292 292 291 290 290 288 286 287 288 287 286 285 286 286 286 283 283 282 281 279 278 277 275 275 275 275 274 275
288 289 291 290 291 291 289 288 288 289 289 291 292 293 292 291 292 292 290 289 288 287 288 288 287 286 285 285 284 284 284 284 283 282 280 279 277 275 274 274 275 275 273
286 286 287 288 288 289 290 288 286 287 289 291 292 292 292 292 292 291 290 289 288 288 288 287 286 286 286 285 285 283 282 283 283 282 280 279 277 276 276 275 274 274 273
286 286 286 287 287 287 288 289 288 286 288 290 290 290 291 291 291 289 288 288 288 288 288 287 287 286 285 284 286 285 282 282 282 280 279 279 277 276 275 274 274 274 273
285 286 286 287 288 286 286 288 289 288 286 287 288 289 289 289 289 290 287 287 287 287 287 286 286 286 286 284 285 286 285 284 282 280 279 279 277 275 274 275 274 275 274
286 285 285 285 286 287 288 290 291 289 288 287 287 288 288 288 289 288 287 286 287 286 285 285 286 286 286 285 285 286 286 285 284 282 280 279 278 276 275 275 275 275 274
286 286 285 285 286 286 287 289 289 290 289 288 288 289 288 288 288 288 287 287 287 286 285 285 285 285 285 284 285 285 286 285 284 283 281 280 278 277 276 274 274 274 272
286 286 287 285 285 286 287 288 288 289 291 291 290 289 290 289 288 288 287 286 285 285 284 284 285 285 284 283 284 284 286 286 285 282 281 280 279 277 276 275 275 274 271
Height
5905 5904 5904 5903 5903 5902 5902 5901 5900 5899 5899 5898 5897 5897 5896 5895 5894 5893 5892 5892 5891 5890 5889 5888 5887 5886 5885 5884 5884 5883 5883 5882 5882 5881 5881 5880 5879 5880 5880 5881 5881 5881 5882
5905 5904 5904 5903 5903 5902 5901 5900 5899 5899 5898 5897 5896 5896 5895 5894 5893 5892 5891 5890 5889 5888 5887 5886 5885 5884 5883 5882 5882 5881 5880 5880 5879 5879 5878 5878 5877 5878 5878 5878 5878 5879 5879
5905 5904 5903 5903 5902 5901 5900 5900 5899 5898 5897 5896 5895 5894 5893 5892 5891 5890 5889 5888 5887 5886 5885 5884 5883 5882 5881 5880 5879 5879 5878 5877 5877 5876 5876 5875 5875 5876 5876 5876 5875 5876 5876
5904 5904 5903 5902 5901 5901 5900 5899 5899 5898 5896 5895 5894 5893 5891 5890 5889 5888 5887 5885 5884 5883 5882 5881 5880 5879 5878 5878 5877 5876 5875 5875 5874 5873 5873 5873 5872 5872 5872 5872 5872 5872 5873
5904 5903 5902 5902 5901 5900 5899 5899 5898 5897 5895 5894 5893 5891 5890 5888 5887 5886 5885 5883 5882 5881 5880 5879 5878 5877 5876 5875 5874 5873 5873 5872 5871 5871 5870 5870 5869 5869 5869 5869 5869 5869 5869
5903 5902 5902 5901 5900 5899 5899 5898 5897 5895 5894 5893 5891 5889 5888 5886 5885 5884 5882 5881 5880 5878 5877 5876 5875 5874 5873 5872 5871 5870 5869 5869 5868 5868 5867 5867 5866 5866 5865 5865 5865 5866 5866
5902 5902 5901 5900 5899 5898 5897 5896 5895 5894 5892 5891 5889 5888 5886 5884 5882 5881 5880 5879 5877 5876 5875 5874 5872 5871 5870 5869 5868 5867 5867 5866 5865 5865 5864 5863 5863 5862 5862 5862 5862 5862 5862
5901 5901 5900 5899 5898 5897 5896 5895 5894 5892 5890 5889 5887 5885 5884 5882 5880 5878 5877 5876 5875 5873 5872 5871 5869 5868 5867 5866 5865 5864 5864 5863 5862 5861 5860 5860 5859 5859 5858 5858 5858 5858 5857
5900 5899 5898 5898 5896 5895 5894 5893 5892 5890 5888 5887 5885 5883 5881 5879 5877 5876 5874 5873 5872 5870 5869 5868 5866 5865 5864 5862 5861 5861 5860 5859 5858 5858 5857 5856 5855 5855 5854 5854 5854 5854 5854
5899 5898 5897 5896 5895 5893 5892 5891 5889 5888 5886 5884 5882 5881 5879 5877 5875 5874 5872 5870 5869 5868 5866 5865 5863 5862 5861 5859 5858 5857 5856 5855 5855 5854 5853 5852 5851 5851 5851 5850 5850 5850 5850
5897 5896 5895 5894 5892 5891 5889 5888 5887 5885 5883 5881 5879 5878 5876 5874 5872 5871 5869 5867 5866 5864 5863 5861 5860 5859 5857 5856 5855 5854 5853 5852 5851 5850 5849 5848 5847 5847 5846 5846 5845 5845 5845
5895 5894 5892 5891 5889 5888 5886 5885 5883 5881 5880 5878 5876 5874 5873 5871 5869 5867 5865 5863 5862 5861 5859 5858 5856 5855 5854 5852 5851 5850 5849 5848 5847 5846 5845 5844 5843 5842 5842 5841 5840 5840 5840
5892 5891 5889 5887 5886 5884 5883 5881 5879 5877 5876 5874 5872 5871 5869 5867 5865 5863 5861 5859 5858 5856 5855 5853 5852 5850 5849 5848 5847 5845 5844 5843 5842 5841 5840 5839 5838 5837 5836 5835 5835 5834 5834
5888 5887 5885 5884 5882 5880 5879 5877 5875 5873 5872 5870 5868 5867 5865 5863 5861 5859 5857 5855 5853 5852 5850 5849 5847 5846 5844 5843 5842 5840 5839 5837 5836 5835 5834 5833 5832 5831 5830 5830 5829 5829 5829
5884 5882 5881 5879 5878 5876 5874 5872 5870 5868 5867 5865 5863 5862 5859 5857 5855 5854 5852 5850 5849 5847 5845 5844 5842 5840 5839 5837 5836 5835 5833 5832 5830 5829 5828 5827 5826 5825 5824 5824 5823 5822 5822
5880 5878 5876 5875 5873 5871 5869 5867 5865 5863 5862 5860 5858 5856 5854 5852 5850 5848 5846 5844 5843 5841 5839 5838 5836 5835 5833 5831 5830 5828 5827 5825 5824 5822 5821 5820 5819 5818 5817 5817 5816 5816 5815
5874 5873 5871 5869 5867 5865 5863 5861 5859 5858 5856 5854 5852 5850 5848 5846 5844 5842 5840 5838 5836 5835 5833 5831 5829 5828 5826 5824 5823 5821 5819 5818 5817 5815 5814 5813 5812 5811 5811 5810 5809 5809 5808
5869 5867 5865 5863 5861 5859 5857 5855 5853 5852 5850 5848 5846 5844 5842 5840 5837 5836 5834 5832 5830 5828 5826 5824 5822 5821 5819 5817 5815 5814 5812 5810 5809 5808 5807 5805 5804 5803 5803 5802 5802 5801 5801
5864 5862 5860 5857 5855 5853 5851 5849 5847 5845 5843 5841 5839 5837 5835 5833 5831 5829 5827 5825 5823 5821 5819 5817 5815 5813 5811 5809 5808 5806 5804 5802 5801 5799 5798 5797 5796 5795 5795 5794 5794 5793 5793
5857 5856 5854 5851 5849 5846 5844 5842 5840 5838 5836 5834 5832 5830 5828 5826 5824 5822 5819 5817 5815 5813 5811 5809 5807 5805 5803 5801 5799 5798 5797 5795 5793 5791 5790 5789 5788 5787 5786 5786 5785 5785 5784
5850 5849 5846 5844 5842 5839 5837 5835 5833 5831 5829 5827 5825 5823 5821 5819 5816 5814 5812 5810 5807 5805 5803 5801 5799 5797 5795 5793 5792 5790 5789 5787 5785 5783 5782 5781 5780 5779 5778 5777 5776 5776 5775
5843 5841 5839 5836 5834 5832 5830 5828 5825 5824 5821 5819 5817 5815 5813 5810 5808 5806 5804 5801 5799 5797 5795 5793 5791 5789 5787 5785 5783 5781 5780 5778 5777 5776 5774 5772 5771 5770 5769 5768 5768 5767 5766
5835 5833 5831 5828 5826 5824 5822 5820 5818 5815 5813 5811 5808 5806 5804 5802 5799 5797 5795 5793 5791 5788 5786 5784 5782 5780 5779 5777 5775 5773 5771 5769 5767 5766 5764 5763 5762 5761 5760 5760 5759 5758 5757
5826 5824 5821 5819 5817 5815 5813 5811 5809 5806 5804 5802 5800 5797 5795 5793 5790 5788 5786 5783 5781 5779 5778 5776 5774 5772 5770 5768 5766 5764 5761 5759 5758 5756 5755 5754 5753 5752 5751 5750 5749 5748 5748
5817 5815 5812 5810 5808 5806 5804 5802 5800 5798 5795 5793 5791 5788 5786 5784 5781 5779 5777 5774 5772 5770 5768 5766 5764 5762 5760 5758 5756 5754 5752 5750 5749 5747 5746 5745 5743 5742 5741 5741 5739 5739 5738
5808 5806 5803 5801 5799 5797 5795 5793 5791 5789 5786 5784 5781 5779 5777 5774 5772 5769 5767 5765 5763 5761 5759 5757 5754 5752 5750 5748 5746 5744 5742 5740 5739 5737 5736 5735 5733 5732 5731 5731 5729 5728 5728